This is the latest recevied weather packets stored in our database for station/object KB4NWJ. If no packets are shown the sender has not sent any weather packets the latest 10 day(s).
| Time | Temp. | Humidity | Pressure | Rain* | Wind** | Luminosity | Snow |
|---|---|---|---|---|---|---|---|
| 1777749240 | 19.44° C | 43% | 1014.4 hPa | 0 mm | - | 580 W/m² | - |
| 1777748937 | 19.44° C | 41% | 1014.7 hPa | 0 mm | - | 658 W/m² | - |
| 1777748634 | 18.89° C | 44% | 1014.4 hPa | 0 mm | - | 628 W/m² | - |
| 1777748330 | 18.89° C | 44% | 1014.3 hPa | 0 mm | - | 662 W/m² | - |
| 1777748025 | 19.44° C | 46% | 1014.5 hPa | 0 mm | - | 696 W/m² | - |
| 1777747723 | 18.89° C | 48% | 1014.6 hPa | 0 mm | - | 683 W/m² | - |
| 1777747418 | 19.44° C | 42% | 1014.4 hPa | 0 mm | - | 654 W/m² | - |
| 1777747115 | 20° C | 45% | 1014.7 hPa | 0 mm | - | 642 W/m² | - |
| 1777746811 | 20° C | 44% | 1014.3 hPa | 0 mm | - | 665 W/m² | - |
| 1777746506 | 19.44° C | 46% | 1014.3 hPa | 0 mm | - | 696 W/m² | - |
| 1777746202 | 19.44° C | 47% | 1014.5 hPa | 0 mm | - | 712 W/m² | - |
| 1777745899 | 19.44° C | 46% | 1014.3 hPa | 0 mm | - | 731 W/m² | - |
| 1777745598 | 20° C | 47% | 1014.2 hPa | 0 mm | - | 720 W/m² | - |
| 1777745295 | 20° C | 46% | 1014.1 hPa | 0 mm | - | 714 W/m² | - |
| 1777744992 | 19.44° C | 45% | 1014.4 hPa | 0 mm | - | 712 W/m² | - |
| 1777744688 | 18.89° C | 50% | 1014.6 hPa | 0 mm | - | 716 W/m² | - |
| 1777744382 | 19.44° C | 49% | 1014.4 hPa | 0 mm | - | 587 W/m² | - |
| 1777744079 | 19.44° C | 47% | 1014.4 hPa | 0 mm | - | 551 W/m² | - |
| 1777743777 | 19.44° C | 49% | 1014.6 hPa | 0 mm | - | 566 W/m² | - |
| 1777743473 | 19.44° C | 48% | 1014.5 hPa | 0 mm | - | 643 W/m² | - |
| 1777743170 | 20° C | 49% | 1014.5 hPa | 0 mm | - | 732 W/m² | - |
| 1777742869 | 19.44° C | 52% | 1014.5 hPa | 0 mm | - | 670 W/m² | - |
| 1777742564 | 18.89° C | 53% | 1014.5 hPa | 0 mm | - | 616 W/m² | - |
| 1777742260 | 19.44° C | 52% | 1014.5 hPa | 0 mm | - | 629 W/m² | - |
| 1777741958 | 17.78° C | 52% | 1014.6 hPa | 0 mm | - | 696 W/m² | - |
* Rain latest hour (hover to see other rain measurements)
** Current wind speed in m/s (hover to see current wind gust speed)